Time,TemperatureF,DewpointF,PressureIn,WindDirection,WindDirectionDegrees,WindSpeedMPH,WindSpeedGustMPH,Humidity,HourlyPrecipIn,Conditions,Clouds,dailyrainin,SoftwareType,DateUTC
2013-03-17 00:01:00,30.8,28.5,30.04,NNW,344,0.0,5.0,91,0.00,,---,0.00,VWS V13.01,2013-03-17 04:01:00,
2013-03-17 00:31:00,30.9,28.6,30.04,NNW,344,0.0,6.0,91,0.00,,---,0.00,VWS V13.01,2013-03-17 04:31:00,
2013-03-17 01:01:00,30.9,28.6,30.05,NW,321,0.0,5.0,91,0.00,,---,0.00,VWS V13.01,2013-03-17 05:01:00,
2013-03-17 02:01:00,30.8,28.5,30.04,ENE,65,0.0,5.0,91,0.00,,---,0.00,VWS V13.01,2013-03-17 06:01:00,
2013-03-17 02:32:00,30.9,28.6,30.06,NNW,327,0.0,3.0,91,0.00,,---,0.00,VWS V13.01,2013-03-17 06:32:00,
2013-03-17 03:01:00,30.9,28.3,30.06,NNW,327,0.0,3.0,90,0.00,,---,0.00,VWS V13.01,2013-03-17 07:01:00,
2013-03-17 03:31:00,31.0,28.4,30.07,NNW,338,0.0,3.0,90,0.00,,---,0.00,VWS V13.01,2013-03-17 07:31:00,
2013-03-17 04:01:00,31.1,28.8,30.07,NNE,32,0.0,6.0,91,0.00,,---,0.00,VWS V13.01,2013-03-17 08:01:00,
2013-03-17 04:31:00,31.0,28.7,30.06,North,5,0.0,4.0,91,0.00,,---,0.00,VWS V13.01,2013-03-17 08:31:00,
2013-03-17 05:31:00,31.0,28.7,30.07,NE,34,0.0,6.0,91,0.00,,---,0.00,VWS V13.01,2013-03-17 09:31:00,
2013-03-17 06:01:00,31.0,28.4,30.08,NE,55,0.0,5.0,90,0.00,,---,0.00,VWS V13.01,2013-03-17 10:01:00,
2013-03-17 06:31:00,30.7,27.9,30.09,North,360,0.0,11.0,89,0.00,,---,0.00,VWS V13.01,2013-03-17 10:31:00,
2013-03-17 07:01:00,30.4,27.3,30.11,NE,41,0.0,11.0,88,0.00,,---,0.00,VWS V13.01,2013-03-17 11:01:00,
2013-03-17 07:32:00,30.2,26.5,30.14,ENE,74,3.0,7.0,86,0.00,,---,0.00,VWS V13.01,2013-03-17 11:32:00,
2013-03-17 08:01:00,30.3,25.8,30.15,ENE,69,1.0,7.0,83,0.00,,---,0.00,VWS V13.01,2013-03-17 12:01:00,
2013-03-17 08:32:00,30.5,26.0,30.17,ENE,70,0.0,2.0,83,0.00,,---,0.00,VWS V13.01,2013-03-17 12:32:00,
2013-03-17 09:01:00,30.8,26.3,30.18,ENE,70,0.0,1.0,83,0.00,,---,0.00,VWS V13.01,2013-03-17 13:01:00,
2013-03-17 09:31:00,31.1,26.3,30.19,ENE,70,0.0,3.0,82,0.00,,---,0.00,VWS V13.01,2013-03-17 13:31:00,
2013-03-17 10:01:00,31.1,26.5,30.19,ENE,69,2.0,4.0,83,0.00,,---,0.00,VWS V13.01,2013-03-17 14:01:00,
2013-03-17 10:31:00,30.4,26.4,30.19,NNE,22,0.0,5.0,85,0.00,,---,0.00,VWS V13.01,2013-03-17 14:31:00,
2013-03-17 11:01:00,30.4,26.4,30.19,ENE,64,4.0,9.0,85,0.00,,---,0.00,VWS V13.01,2013-03-17 15:01:00,
2013-03-17 11:31:00,30.8,26.8,30.19,ENE,61,1.0,9.0,85,0.00,,---,0.00,VWS V13.01,2013-03-17 15:31:00,
2013-03-17 12:01:00,31.0,27.0,30.19,NE,48,2.0,7.0,85,0.00,,---,0.00,VWS V13.01,2013-03-17 16:01:00,
2013-03-17 12:31:00,32.3,27.7,30.19,ENE,65,1.0,10.0,83,0.00,,---,0.00,VWS V13.01,2013-03-17 16:31:00,
2013-03-17 13:01:00,32.9,27.4,30.19,ENE,76,5.0,10.0,80,0.00,,---,0.00,VWS V13.01,2013-03-17 17:01:00,
2013-03-17 13:31:00,34.0,28.5,30.18,ENE,69,0.0,10.0,80,0.00,,---,0.00,VWS V13.01,2013-03-17 17:31:00,
2013-03-17 14:02:00,33.9,28.4,30.18,ENE,74,4.0,9.0,80,0.00,,---,0.00,VWS V13.01,2013-03-17 18:02:00,
2013-03-17 14:31:00,34.1,28.3,30.17,ENE,63,9.0,10.0,79,0.00,,---,0.00,VWS V13.01,2013-03-17 18:31:00,
2013-03-17 15:01:00,34.0,28.2,30.17,East,81,1.0,12.0,79,0.00,,---,0.00,VWS V13.01,2013-03-17 19:01:00,
2013-03-17 15:32:00,34.1,28.0,30.16,ENE,66,6.0,11.0,78,0.00,,---,0.00,VWS V13.01,2013-03-17 19:32:00,
2013-03-17 16:01:00,34.1,27.7,30.16,ENE,72,2.0,10.0,77,0.00,,---,0.00,VWS V13.01,2013-03-17 20:01:00,
2013-03-17 16:31:00,34.4,28.0,30.16,ENE,60,4.0,9.0,77,0.00,,---,0.00,VWS V13.01,2013-03-17 20:31:00,
2013-03-17 18:01:00,35.2,27.4,30.15,ESE,105,0.0,7.0,73,0.00,,---,0.00,VWS V13.01,2013-03-17 22:01:00,
2013-03-17 18:31:00,35.5,27.7,30.14,East,99,0.0,9.0,73,0.00,,---,0.00,VWS V13.01,2013-03-17 22:31:00,
2013-03-17 19:01:00,34.8,27.4,30.13,ENE,74,3.0,11.0,74,0.00,,---,0.00,VWS V13.01,2013-03-17 23:01:00,
2013-03-17 20:01:00,33.3,26.9,30.15,East,80,0.0,9.0,77,0.00,,---,0.00,VWS V13.01,2013-03-18 00:01:00,
2013-03-17 20:31:00,32.3,26.5,30.15,East,80,0.0,5.0,79,0.00,,---,0.00,VWS V13.01,2013-03-18 00:31:00,
2013-03-17 21:01:00,31.9,26.4,30.15,ENE,74,1.0,7.0,80,0.00,,---,0.00,VWS V13.01,2013-03-18 01:01:00,
2013-03-17 21:31:00,32.3,26.8,30.15,ENE,76,0.0,9.0,80,0.00,,---,0.00,VWS V13.01,2013-03-18 01:31:00,
2013-03-17 22:01:00,31.9,26.7,30.14,ENE,74,3.0,8.0,81,0.00,,---,0.00,VWS V13.01,2013-03-18 02:01:00,
2013-03-17 23:01:00,31.6,26.5,30.13,ENE,75,0.0,11.0,81,0.00,,---,0.00,VWS V13.01,2013-03-18 03:01:00,
2013-03-17 23:32:00,31.4,26.2,30.10,ENE,69,5.0,12.0,81,0.00,,---,0.00,VWS V13.01,2013-03-18 03:32:00,